weather.gov     
National Weather Service

Terminal Aerodrome Forecast
NWS Homepage
This page is being discontinued on March 12, 2014.
The same data is available at this site. Please update your bookmarks.
Thank you, and we apologize for the inconvenience.
Please send an email to SR-SRH.Webmaster@noaa.gov with any concerns.


Current Version
Previous Version:    01  02  03  04  05  06  07  08  09  10  11  12  13  14  
[Printable]
534
FTUS41 KBTV 232333
TAFBTV
TAF
KBTV 232333Z 2400/2424 13005KT P6SM BKN050
     FM241000 16012KT 5SM -RA OVC035
     FM241300 17014KT 3SM RA BR OVC008
     FM241700 17012KT 6SM BR OVC010=




534
FTUS41 KBTV 232333
TAFBTV
TAF
KBTV 232333Z 2400/2424 13005KT P6SM BKN050
     FM241000 16012KT 5SM -RA OVC035
     FM241300 17014KT 3SM RA BR OVC008
     FM241700 17012KT 6SM BR OVC010=


U.S. Dept. of Commerce
NOAA National Weather Service
1325 East West Highway
Silver Spring, MD 20910
E-mail: w-nws.webmaster@noaa.gov
Page last modified: May 16, 2007
NATIONAL WEATHER SERVICE: for Safety, for Work, for Fun - FOR LIFE